GREENECSD Weather Reports


time (UTC)temp
C
wind
direction
speed
KPH
gust
KPH
rain 1hr
cm
rain 24hr
cm
rain mn
cm
humidity
%
barometer
mb
20260507050039 6 352 0.0 3.2 0.03 0.58 0.03 94 1010.4
20260507044527 6 203 0.0 0.0 0.03 0.58 0.03 94 1010.6
20260507043025 6 210 0.0 0.0 0.00 0.56 0.00 94 1010.4
20260507041516 6 210 0.0 0.0 0.00 0.56 0.00 94 1010.3
20260507040017 6 210 0.0 0.0 0.03 0.56 0.00 93 1010.1
20260507034537 6 226 0.0 0.0 0.03 0.56 0.56 94 1009.7
20260507033031 6 226 0.0 0.0 0.03 0.56 0.56 93 1010.1
20260507031527 6 226 0.0 0.0 0.03 0.56 0.56 94 1010.1
20260507030019 6 226 0.0 0.0 0.00 0.53 0.53 93 1010.5
20260507024531 6 226 0.0 3.2 0.00 0.53 0.53 93 1010.3
20260507023024 6 245 1.6 1.6 0.03 0.53 0.53 93 1010.6
20260507021527 6 255 0.0 0.0 0.03 0.53 0.53 92 1010.6
20260507020027 6 250 0.0 3.2 0.03 0.53 0.53 92 1010.8
20260507014533 6 256 0.0 3.2 0.03 0.53 0.53 91 1010.7
20260507013022 6 256 1.6 3.2 0.00 0.51 0.51 91 1010.9
20260507011537 6 241 0.0 0.0 0.00 0.51 0.51 91 1010.5
20260507010026 6 241 0.0 3.2 0.03 0.51 0.51 92 1010.6
20260507004527 6 237 0.0 3.2 0.03 0.51 0.51 92 1010.3
20260507003021 6 198 0.0 3.2 0.03 0.51 0.51 91 1010.3
20260507001526 7 198 0.0 3.2 0.03 0.51 0.51 91 1010.0
20260507000030 7 195 0.0 3.2 0.00 0.48 0.48 90 1009.8
20260506234528 7 288 0.0 3.2 0.03 0.48 0.48 90 1009.5
20260506233018 7 288 0.0 4.8 0.03 0.48 0.48 90 1009.6
20260506231524 7 287 1.6 4.8 0.03 0.48 0.48 89 1009.4
20260506230013 7 244 0.0 8.0 0.03 0.48 0.48 88 1009.4
20260506224511 7 359 4.8 11.3 0.03 0.46 0.46 88 1009.0
20260506223018 7 337 4.8 9.7 0.03 0.46 0.46 89 1009.0
20260506221521 7 316 9.7 14.5 0.03 0.46 0.46 88 1008.9
20260506220029 8 333 6.4 16.1 0.03 0.46 0.46 89 1008.8
20260506214527 8 321 8.0 19.3 0.03 0.43 0.43 88 1008.7
20260506213016 8 325 4.8 17.7 0.03 0.43 0.43 89 1008.6
20260506211519 8 323 6.4 14.5 0.03 0.43 0.43 91 1008.2
20260506210024 8 357 4.8 6.4 0.03 0.43 0.43 93 1007.9
20260506204528 8 314 4.8 11.3 0.03 0.41 0.41 92 1007.7
20260506203013 8 328 6.4 12.9 0.03 0.41 0.41 91 1007.4
20260506201523 8 1 4.8 11.3 0.03 0.41 0.41 92 1007.1
20260506200022 8 343 12.9 24.1 0.03 0.43 0.41 92 1007.2
20260506194525 8 345 3.2 6.4 0.03 0.41 0.38 93 1007.2
20260506193007 8 346 3.2 9.7 0.03 0.41 0.38 93 1006.8
20260506191516 8 327 0.0 3.2 0.03 0.41 0.38 93 1006.6
20260506190019 8 343 3.2 6.4 0.05 0.41 0.38 92 1006.6
20260506184526 8 338 3.2 8.0 0.03 0.38 0.36 91 1006.3
20260506183025 8 341 6.4 12.9 0.03 0.38 0.36 91 1006.2
20260506181514 9 342 4.8 12.9 0.05 0.38 0.36 91 1006.1
20260506180018 9 359 3.2 14.5 0.03 0.36 0.33 90 1006.0
20260506174527 10 1 1.6 6.4 0.03 0.36 0.33 92 1005.6
20260506173026 10 356 3.2 25.7 0.05 0.36 0.33 91 1005.4
20260506171526 13 323 1.6 11.3 0.03 0.33 0.30 93 1005.2
20260506170012 13 208 3.2 8.0 0.05 0.33 0.30 93 1005.3
20260506164518 13 233 6.4 11.3 0.05 0.33 0.30 92 1005.1
20260506163028 13 329 3.2 12.9 0.03 0.30 0.28 92 1005.2
20260506161524 13 295 3.2 8.0 0.05 0.30 0.28 92 1005.0
20260506160028 13 262 3.2 6.4 0.03 0.28 0.25 92 1005.2
20260506154518 13 188 3.2 9.7 0.05 0.28 0.25 92 1005.5
20260506153032 13 214 1.6 6.4 0.05 0.28 0.25 92 1005.4
20260506151526 13 261 0.0 4.8 0.05 0.25 0.23 94 1005.4
20260506150027 13 307 3.2 4.8 0.05 0.25 0.23 94 1005.5
20260506144549 12 5 0.0 1.6 0.05 0.23 0.20 95 1005.2
20260506143017 12 5 0.0 3.2 0.05 0.23 0.20 96 1005.4
20260506141525 11 5 0.0 3.2 0.03 0.20 0.18 95 1005.5
20260506140038 11 53 0.0 3.2 0.05 0.20 0.18 95 1005.7
20260506134512 11 332 0.0 3.2 0.03 0.18 0.15 95 1005.9
20260506133017 10 210 0.0 3.2 0.03 0.18 0.15 95 1006.0
20260506131535 10 340 0.0 3.2 0.05 0.18 0.15 94 1006.5
20260506130025 10 343 0.0 3.2 0.03 0.15 0.13 94 1006.5
20260506124510 10 343 1.6 3.2 0.03 0.15 0.13 94 1006.1
20260506123015 10 39 1.6 4.8 0.05 0.15 0.13 94 1005.9
20260506121526 10 56 1.6 3.2 0.03 0.13 0.10 94 1006.0
20260506120031 10 39 1.6 3.2 0.03 0.13 0.10 93 1006.4
20260506114526 9 81 1.6 3.2 0.05 0.13 0.10 93 1006.5
20260506113014 9 354 0.0 3.2 0.03 0.10 0.08 93 1006.7
20260506111515 9 81 1.6 3.2 0.03 0.10 0.08 93 1006.6
20260506110032 9 32 0.0 3.2 0.03 0.10 0.08 93 1006.8
20260506104526 9 31 0.0 3.2 0.03 0.08 0.05 92 1006.8
20260506103028 9 31 0.0 3.2 0.03 0.08 0.05 92 1006.7
20260506101516 9 20 0.0 4.8 0.03 0.08 0.05 91 1006.3
20260506100020 9 20 1.6 3.2 0.05 0.08 0.05 91 1006.1
20260506094526 9 71 1.6 4.8 0.03 0.05 0.03 90 1006.1
20260506093032 9 47 0.0 4.8 0.03 0.05 0.03 89 1006.1
20260506091526 10 79 1.6 8.0 0.03 0.05 0.03 88 1006.5
20260506090016 10 92 1.6 6.4 0.00 0.03 0.00 87 1006.7
20260506084520 10 239 1.6 8.0 0.00 0.03 0.00 87 1006.9
20260506083031 10 77 0.0 4.8 0.00 0.03 0.00 86 1006.9
20260506081525 10 75 3.2 6.4 0.00 0.03 0.00 86 1006.8
20260506073024 10 72 3.2 6.4 0.00 0.03 0.00 86 1006.9
20260506071528 10 85 1.6 4.8 0.00 0.03 0.00 86 1007.0
20260506061526 10 56 1.6 6.4 0.00 0.03 0.00 84 1007.7